Tracking 18980 objects as of 19-Feb-2018
HD Live streaming from Space Station
objects crossing your sky now

OV1-14

Track OV1-14 now!
10-day predictions
OV1-14 is classified as:


NORAD ID: 3174
Int'l Code: 1968-026B
Perigee: 582.6 km
Apogee: 9,844.2 km
Inclination: 100.0 °
Period: 206.8 minutes
Semi major axis: 11584 km
RCS: 0.7366 m2 (medium)
Launch date: April 6, 1968
Source: United States (US)
Launch site: AIR FORCE WESTERN TEST RANGE (AFWTR)
aabbcc
Your satellite tracking list
Your tracking list is empty




NASA's NSSDC Master Catalog

Two Line Element Set (TLE):
1  3174U 68026B   18050.36224821 +.00000084 +00000-0 +15665-3 0  9997
2  3174 100.0154 155.2999 3997459 036.8574 016.0711 06.96295997264681
Source of the keplerian elements: AFSPC